User: anonymous   Login
Location: Stendal
(52.5994°N, 11.8400°E)
Time: 22:47:13
(UTC+01:00)
Language:

COSMOS 2251 DEB - Orbit

View from above orbital plane
View from above orbital plane
View from above satellite
View from above satellite

Ground track
Ground track

The orbit data is extracted from the following two-line orbital elements,

1 34953U 93036AEG 22022.53480554  .00001147  00000-0  27970-3 0  9998
2 34953  74.0967 201.6936 0079503 218.9301 198.2054 14.51978563674223
Epoch (UTC): 22 January 2022 12:50:07
Eccentricity: 0.0079503
inclination: 74.0967°
perigee height: 663 km
apogee height: 775 km
right ascension of ascending node: 201.6936°
argument of perigee: 218.9301°
revolutions per day: 14.51978563
mean anomaly at epoch: 198.2054°
orbit number at epoch: 67422

The dashed part of the orbit path shows where the satellite is in the earth's shadow,  

DLR